Location: Berg
(47.2344°N, 9.5296°E)
Time: 12:43:34
(UTC+00:00)

NOSS 2-1 (D) - Pass Details

Date: 24 January 2021
Orbit: 434 x 1768 km, 63.3° (Epoch: 27 February)

Event Time Altitude Azimuth Distance (km) Brightness Sun altitude
Rises 18:38:51 0° 238° (WSW) 2,431 7.6 -24.7°
Reaches altitude 10° 18:40:59 10° 246° (WSW) 1,539 6.5 -25.1°
Enters shadow 18:43:26 34° 287° (WNW) 745 4.5 -25.5°
